星链-30430 (STARLINK-30430 )

导读 | 豆包AI

STARLINK-30430是美国星链项目下属的低轨互联网卫星,于2023年9月12日发射升空。该卫星归属于SpaceX公司打造的星链星座,星链计划旨在为全球提供覆盖广泛、低延迟的高速卫星互联网服务,这颗卫星的入轨进一步扩充了星链星座的在轨卫星规模,推进了全球卫星互联网组网建设进程。

Basic Information
目录编号:
57849
目录名称:
STARLINK-30430
国际标识:
2023-141K
轨道中心:
EARTH
卫星名称:
星链-30430
卫星全名:
星链-30430 (STARLINK-30430 )
卫星状态:
在轨 (已飞行961 天)
发射日期:
2023-09-12 UTC
国别 :
美国 (US)
星等 :
--
Orbit Information
数据来源 国际轨道数据 AOE轨道数据
星历时间 2026-04-30T12:48:03+0800
13小时前
查看轨道信息
2026-04-26T23:00:00+0800
4天前
查看轨道信息
半长轴 6853.346km 6853.37km
偏心率 0.0001163 0.0001182
轨道倾角 53.162° 53.160°
近地点辐角 72.540° 102.815°
升交点赤经 44.925° 61.528°
平近点角 287.572° 352.546°
近地点 474.411km 474.422km
远地点 476.007km 476.044km
周期 94.105分钟 94.106分钟
每日圈数 15.302021 15.301943
Detailed Information
固有亮度:
5
最大亮度:
0.3
卫星平台:
Starlink v2.0 mini
覆盖范围:
全球
运营商:
太空探索技术公司
运营商所在国:
美国
制造商(研发单位):
太空探索技术公司
制造商所在国:
美国
使用方式:
暂无
Satellite Introduction
星链(Starlink)计划是由太空探索技术公司(SpaceX)提出的一个巨型低轨卫星互联网星座项目,计划在2019年至2024年间在太空搭建由约1.2万颗卫星组成的“星链”网络,其中1584颗将部署在地球上空550千米处的近地轨道,并从2020年开始工作。该卫星仍在工作。
2D Orbit Map
3D Orbit Map
Orbit Altitude Analysis Chart
Orbit Inclination Analysis Chart
Orbit Comprehensive Analysis Chart
View Comprehensive Chart